Simultaneous Nadir Overpasses (SNOs) Predictions

Prediction of SNOs between LANDSAT-8 and METOP-B Satellite Orbit:

Table of predicted SNOs for the next 14.0 days since TLE Epoch: 5/21/2022
Index Date (LANDSAT-8) Time (LANDSAT-8) Lat,Lon (LANDSAT-8) SZA (LANDSAT-8 ) Date (METOP-B) Time (METOP-B) Lat,Lon (METOP-B) SZA (METOP-B ) Distance(km) Time Diff (sec)
1 05/21/2022 04:19:43 81.18, 155.95 63.33 05/21/2022 04:20:36 81.18, 156.04 63.37 1.50 53
2 05/23/2022 23:04:32 -81.17, 54.59 117.24 05/23/2022 23:04:20 -81.17, 54.77 117.23 3.06 12
3 05/23/2022 23:53:58 81.17,-137.67 62.77 05/23/2022 23:55:00 81.18,-137.58 62.81 1.65 62
4 05/26/2022 18:38:47 -81.15, 120.80 117.78 05/26/2022 18:38:45 -81.15, 120.74 117.79 1.15 2
5 05/26/2022 19:28:12 81.18, -71.12 62.28 05/26/2022 19:29:24 81.17, -71.28 62.30 2.71 72
6 05/29/2022 13:23:33 81.15, 19.58 61.76 05/29/2022 13:22:27 81.15, 19.68 61.74 1.76 66
7 05/29/2022 14:12:59 -81.17,-172.45 118.20 05/29/2022 14:13:07 -81.16,-172.62 118.22 3.08 8
8 06/01/2022 08:57:46 81.16, 86.11 61.36 06/01/2022 08:56:50 81.15, 86.21 61.35 1.71 56



Historial Predications of SNOs between LANDSAT-8 and METOP-B
